sat.trackr.live / text

‹ back to catalog

STARLINK-35210

NORAD 65903 · 2025-224X

PAYLOAD ACTIVE UNKNOWN

§ Identity

Operator
Country
US
Launch date
2025-10-07
Launch site
AFETR
Launch vehicle
Mass (kg)
RCS (m²)

Purposes: comms

External: N2YO · Heavens-Above · Gunter

§ Orbital elements

Epoch: 2026-09-20T04:22:33.214368Z

Period
93.85 min
Inclination
53.1591°
Eccentricity
0.0001974
Mean motion
15.34401354 rev/d
Perigee alt
461.3 km
Apogee alt
464.0 km
Semi-major
6,840.8 km
B*
5.6711e-4
RAAN
187.1181°
Arg perigee
91.1360°
Mean anomaly
268.9869°
Rev number
5,464

§ Raw data

STARLINK-352101 65903U 25224X   26263.18232887  .00018834  00000+0  56711-3 0  99922 65903  53.1591 187.1181 0001974  91.1360 268.9869 15.34401354 54644

JSON: /api/v1/satellites/65903 · /tle

For live sub-satellite position, see the globe view (requires WebGL).

§ Visibility from observer

Set your observer location to see the next 7 days of passes ≥ 10°. The values pass through the URL so the page stays shareable.

No JS? Fill the form by hand. The geolocation button needs JavaScript.